Date,TemperatureHighF,TemperatureAvgF,TemperatureLowF,DewpointHighF,DewpointAvgF,DewpointLowF,HumidityHigh,HumidityAvg,HumidityLow,PressureMaxIn,PressureMinIn,WindSpeedMaxMPH,WindSpeedAvgMPH,GustSpeedMaxMPH,PrecipitationSumIn
2013-1-1,33,30,23,31,26,20,94,86,73,30.19,30.06,7,1,9,0.05
2013-1-2,25,16,6,19,8,1,92,74,39,30.31,30.18,5,0,7,0.01
2013-1-3,31,18,0,25,12,-3,89,79,63,30.36,30.27,12,2,17,0.02
2013-1-4,33,28,22,25,21,18,83,74,61,30.39,30.33,12,3,18,0.01
2013-1-5,42,28,11,28,21,9,91,77,51,30.39,30.18,12,1,19,0.04
2013-1-6,37,33,26,32,27,21,85,80,74,30.39,30.05,11,4,14,0.04
2013-1-7,39,26,14,27,21,11,91,81,62,30.50,30.28,9,1,12,0.00
2013-1-8,48,28,14,33,23,12,94,82,55,30.34,30.24,7,1,11,0.00
2013-1-9,51,39,24,42,34,23,95,84,65,30.52,30.24,7,2,13,0.07
2013-1-10,43,34,24,39,31,22,96,89,72,30.55,30.11,8,1,9,0.06
2013-1-11,60,50,38,55,47,37,97,88,71,30.10,29.88,13,3,22,0.08
2013-1-12,66,56,38,62,53,37,98,90,73,30.00,29.73,12,2,20,0.26
2013-1-13,66,48,29,62,46,25,98,92,85,30.17,29.65,14,3,22,0.75
2013-1-14,28,24,20,24,19,17,87,82,75,30.48,30.18,8,2,11,0.75
2013-1-15,32,27,19,26,22,17,92,81,70,30.41,30.12,11,3,15,0.00
2013-1-16,34,32,29,28,25,22,86,77,62,30.12,30.00,8,2,11,0.00
2013-1-17,44,33,25,31,25,16,90,74,55,30.44,30.11,11,1,15,0.00
2013-1-18,42,29,15,27,19,12,92,68,42,30.55,30.22,12,4,22,0.00
2013-1-19,55,46,38,34,28,25,61,51,36,30.22,29.90,17,8,24,0.00
2013-1-20,46,32,24,37,17,10,75,55,41,30.27,29.92,8,2,20,0.00
2013-1-21,24,19,11,16,7,-3,82,62,45,30.30,30.14,15,3,24,0.00
2013-1-22,19,12,5,0,-2,-4,70,55,40,30.45,30.30,11,3,15,0.00
2013-1-23,22,17,8,10,4,0,78,58,47,30.41,30.14,7,2,14,0.00
2013-1-24,24,19,13,13,5,-1,72,55,34,30.63,30.18,12,3,13,0.00
2013-1-25,26,22,17,21,14,7,89,74,55,30.47,30.07,10,2,10,0.01
2013-1-26,32,20,11,19,14,8,92,80,58,30.48,30.15,7,1,12,0.07
2013-1-27,35,24,10,34,20,8,94,84,67,30.48,30.17,5,1,9,0.31
2013-1-28,53,48,35,52,46,34,97,93,83,30.16,30.01,18,5,18,0.30
2013-1-29,65,59,52,59,55,50,96,86,80,30.02,29.50,17,7,23,0.30
2013-1-30,67,51,30,60,46,25,96,85,77,29.59,29.26,21,7,31,0.15
2013-1-31,31,25,14,25,17,7,90,72,60,30.11,29.60,14,6,24,0.15
2013-2-1,16,10,5,6,3,-1,88,73,63,30.46,30.12,13,3,17,0.00
2013-2-2,29,23,9,25,19,6,90,85,81,30.36,30.03,10,3,15,0.00
2013-2-3,26,18,9,21,13,6,90,81,73,30.16,29.98,8,2,13,0.00
2013-2-4,36,25,9,32,21,6,94,85,62,30.15,29.84,9,2,15,0.04
2013-2-5,36,32,26,32,27,22,95,83,75,30.03,29.87,6,1,11,0.02
2013-2-6,36,32,24,32,26,22,93,80,69,30.29,30.04,9,1,9,0.03
2013-2-7,58,40,26,43,31,24,92,75,42,30.23,29.79,7,1,12,0.00
2013-2-8,50,35,25,44,31,22,92,83,74,30.36,29.81,8,2,18,0.14
2013-2-9,42,29,17,25,21,15,94,73,45,30.46,30.24,6,1,10,0.00
2013-2-10,54,42,23,47,33,21,93,72,49,30.24,29.77,16,4,22,0.02
2013-2-11,53,44,36,49,34,27,93,69,52,30.05,29.73,17,6,25,0.02
2013-2-12,48,36,26,29,27,23,90,71,42,30.15,29.94,8,2,13,0.00
2013-2-13,41,32,27,29,27,24,92,81,58,29.94,29.80,6,1,9,0.00
2013-2-14,52,41,34,38,34,30,90,76,52,30.01,29.82,17,5,21,0.00
2013-2-15,38,30,20,32,26,17,94,83,71,30.19,30.00,6,1,19,0.02
2013-2-16,28,22,16,18,14,8,93,73,53,30.18,30.09,9,1,15,0.02
2013-2-17,32,20,7,16,10,4,90,68,34,30.28,30.15,5,1,11,0.01
2013-2-18,59,40,16,42,27,12,87,62,41,30.23,29.69,25,6,34,0.17
2013-2-19,47,30,24,42,24,15,92,78,68,30.14,29.64,18,6,28,0.28
2013-2-20,28,22,16,16,12,9,76,68,53,30.35,30.14,8,2,15,0.00
2013-2-21,32,25,16,26,18,12,88,76,63,30.38,30.07,16,4,18,0.00
2013-2-22,38,34,29,36,32,26,96,91,87,30.10,29.90,10,2,15,0.35
2013-2-23,40,33,27,32,26,22,93,75,56,30.02,29.94,9,2,16,0.01
2013-2-24,42,31,22,27,23,19,92,75,55,30.18,29.98,7,1,11,0.01
2013-2-25,46,30,18,28,22,16,94,76,48,30.20,30.03,13,3,17,0.01
2013-2-26,45,44,40,43,41,38,94,92,89,29.50,29.38,13,3,14,0.69
2013-2-27,42,37,33,39,33,30,91,88,82,29.72,29.50,13,6,21,0.04
2013-2-28,37,36,34,33,33,32,93,88,84,29.98,29.83,5,1,9,0.12
2013-3-1,36,33,29,33,29,23,92,84,78,30.08,29.99,8,3,15,0.03
2013-3-2,30,28,26,24,21,20,80,76,68,30.11,30.06,5,2,13,0.03
2013-3-3,33,28,19,23,20,16,90,72,60,30.12,30.08,8,1,15,0.01
2013-3-4,42,30,13,28,20,11,92,71,42,30.19,30.01,7,1,11,0.01
2013-3-5,37,35,30,35,31,27,95,86,69,30.02,29.63,7,2,11,0.23
2013-3-6,34,30,28,29,27,25,93,88,82,30.29,29.71,9,1,9,0.18
2013-3-7,38,33,30,31,29,27,92,84,68,30.41,30.27,3,0,8,0.28
2013-3-8,44,32,22,28,24,20,94,76,49,30.50,30.40,9,2,12,0.01
2013-3-9,57,42,24,37,30,22,95,67,41,30.40,30.00,8,1,13,0.01
2013-3-10,68,59,43,39,36,32,76,45,29,30.01,29.79,14,6,22,0.00
2013-3-11,60,49,36,52,43,31,93,83,50,29.86,29.58,18,6,23,0.40
2013-3-12,45,37,34,32,29,26,86,73,49,30.06,29.86,12,4,18,0.01
2013-3-13,34,29,23,30,23,18,89,78,65,30.35,30.03,12,2,18,0.02
2013-3-14,44,31,17,29,20,15,94,68,36,30.39,30.20,9,2,14,0.02
2013-3-15,51,37,25,40,32,24,95,81,59,30.20,29.80,8,1,11,0.01
2013-3-16,57,45,37,51,41,34,97,86,68,30.03,29.61,6,2,15,0.01
2013-3-17,37,35,33,34,29,27,89,79,73,30.16,30.03,12,5,17,0.01
2013-3-18,50,39,34,47,36,30,96,91,83,30.01,29.60,9,4,15,0.03
2013-3-19,43,35,26,35,22,16,87,60,35,30.13,29.84,24,5,28,0.04
2013-3-20,34,29,23,22,16,9,84,61,41,30.12,30.01,12,3,18,0.00
2013-3-21,32,26,19,16,12,8,80,58,43,30.07,29.99,10,2,13,0.00
2013-3-22,46,29,15,22,17,12,92,64,32,30.11,30.02,7,1,12,0.00
2013-3-23,51,38,25,27,24,20,82,59,35,30.09,29.91,10,2,15,0.00
2013-3-24,37,34,32,31,28,23,95,81,58,29.91,29.45,16,5,24,0.00
2013-3-25,36,32,29,32,29,26,95,89,82,29.99,29.46,7,1,14,0.45
2013-3-26,40,35,32,30,28,25,91,78,59,30.26,29.99,9,2,11,0.17
2013-3-27,44,35,26,31,26,22,92,71,51,30.34,30.26,7,1,12,0.17
2013-3-28,50,35,20,30,25,19,94,70,43,30.39,30.31,7,1,13,0.00
2013-3-29,58,40,23,34,28,22,94,66,32,30.35,30.22,8,1,11,0.00
2013-3-30,61,44,25,37,31,23,95,65,34,30.26,29.94,10,2,14,0.00
2013-3-31,59,49,40,46,41,34,93,76,51,29.92,29.77,10,3,19,0.02
2013-4-1,48,41,30,28,21,17,67,46,33,30.15,30.01,8,2,16,0.00
2013-4-2,47,35,19,24,18,13,91,54,26,30.29,30.15,8,1,16,0.00
2013-4-3,50,32,18,25,17,12,91,60,25,30.44,30.29,9,2,15,0.00
2013-4-4,61,41,29,25,20,13,78,49,16,30.36,30.00,10,1,13,0.00
2013-4-5,61,43,24,35,27,21,90,59,28,30.15,30.00,9,2,16,0.00
2013-4-6,67,51,31,38,31,24,88,52,28,30.20,29.86,13,4,17,0.00
2013-4-7,75,66,58,52,44,37,71,45,32,29.95,29.81,14,5,22,0.00
2013-4-8,73,63,54,56,53,50,87,71,54,29.96,29.83,13,4,23,0.00
2013-4-9,81,67,47,60,54,45,96,68,44,30.02,29.88,18,5,30,0.00
2013-4-10,84,73,61,66,61,57,86,68,49,29.91,29.73,20,6,27,0.00
2013-4-11,67,62,58,62,59,57,96,89,79,29.77,29.50,9,2,13,0.26
2013-4-12,58,45,39,57,38,31,96,75,61,29.93,29.52,14,4,20,0.41
2013-4-13,57,46,37,37,35,33,86,66,44,30.03,29.93,20,4,22,0.00
2013-4-14,73,54,32,45,39,30,95,64,35,30.06,29.85,9,2,12,0.01
2013-4-15,73,62,50,55,51,44,85,66,52,29.96,29.87,9,3,15,0.00
2013-4-16,76,62,53,63,57,50,96,82,60,30.16,29.91,11,3,16,0.84
2013-4-17,77,62,51,66,58,49,95,86,69,30.18,29.92,9,3,13,0.01
2013-4-18,82,72,64,65,60,54,86,68,45,29.93,29.54,20,7,27,0.01
2013-4-19,74,46,38,60,37,29,91,73,52,29.98,29.47,15,6,25,0.70
2013-4-20,50,41,32,33,28,25,85,63,38,30.42,29.98,9,3,16,0.00
2013-4-21,56,41,26,31,28,24,92,63,34,30.55,30.39,14,2,18,0.00
2013-4-22,72,51,28,42,33,27,95,59,25,30.39,30.11,7,1,14,0.00
2013-4-23,70,57,39,54,46,37,95,71,50,30.13,29.80,11,3,20,0.00
2013-4-24,66,47,34,56,42,32,95,83,58,30.22,29.76,15,3,21,0.22
2013-4-25,59,43,29,40,32,28,97,71,33,30.40,30.22,13,3,27,0.23
2013-4-26,66,47,28,40,33,27,95,63,28,30.47,30.33,6,1,10,0.00
2013-4-27,65,52,36,51,42,33,94,71,37,30.35,30.04,8,2,13,0.00
2013-4-28,65,59,56,59,55,51,94,86,70,30.02,29.81,7,2,15,0.11
2013-4-29,67,59,50,56,54,48,94,84,62,29.98,29.88,7,1,10,0.11
2013-4-30,82,62,44,58,51,43,97,72,37,30.04,29.94,7,1,11,0.01
2013-5-1,87,67,47,59,54,46,97,67,33,30.14,30.03,7,1,12,0.00
2013-5-2,77,65,51,57,54,50,97,72,44,30.18,30.05,6,1,11,0.00
2013-5-3,78,67,54,59,54,41,95,67,39,30.06,29.90,8,2,17,0.00
2013-5-4,73,64,55,53,46,39,90,54,35,29.98,29.90,11,3,16,0.02
2013-5-5,59,55,52,53,50,48,96,85,67,29.98,29.91,11,2,17,0.27
2013-5-6,65,59,52,57,54,50,95,85,74,29.95,29.88,16,5,21,0.02
2013-5-7,75,63,54,59,55,52,96,78,50,29.98,29.89,7,2,13,0.02
2013-5-8,78,61,49,60,54,48,98,81,44,30.00,29.93,9,1,15,0.02
2013-5-9,82,66,53,61,56,51,97,76,35,29.99,29.89,12,2,18,0.47
2013-5-10,68,62,56,64,60,53,98,94,83,29.92,29.78,5,1,11,0.39
2013-5-11,60,52,44,53,48,41,93,85,69,30.01,29.86,11,2,16,0.01
2013-5-12,56,47,35,41,34,28,97,66,37,30.12,30.01,10,2,15,0.02
2013-5-13,63,49,34,43,33,28,96,61,27,30.19,30.11,10,2,16,0.00
2013-5-14,83,63,40,60,49,36,93,64,40,30.14,29.79,12,4,21,0.00
2013-5-15,88,78,68,62,60,58,71,54,36,29.85,29.76,13,6,21,0.00
2013-5-16,81,71,62,65,62,57,93,73,45,29.95,29.80,10,2,17,0.02
2013-5-17,84,67,57,67,62,56,98,85,51,30.04,29.95,9,1,22,0.11
2013-5-18,80,69,62,67,64,61,98,85,60,30.04,29.94,8,2,12,0.11
2013-5-19,86,71,60,68,64,59,98,81,53,29.98,29.86,5,1,9,0.00
2013-5-20,87,75,62,71,67,62,98,78,55,29.95,29.82,11,3,15,0.00
2013-5-21,84,74,61,67,64,59,95,72,50,29.94,29.74,14,4,19,0.01
2013-5-22,78,70,64,67,63,59,90,77,61,29.78,29.69,11,3,23,0.04
2013-5-23,66,61,52,60,56,50,97,86,72,30.10,29.77,8,2,14,0.15
2013-5-24,66,56,44,49,44,38,91,68,37,30.33,30.10,7,2,13,0.16
2013-5-25,66,53,38,52,44,37,97,76,44,30.39,30.21,6,1,7,0.00
2013-5-26,72,61,52,53,50,46,95,70,42,30.30,30.16,5,1,17,0.00
2013-5-27,84,68,54,63,57,52,93,70,44,30.18,29.89,10,3,17,0.01
2013-5-28,85,75,63,68,64,60,92,70,49,29.96,29.87,17,4,21,0.02
2013-5-29,87,76,63,64,62,59,90,64,40,30.02,29.95,12,3,20,0.00
2013-5-30,89,75,62,70,66,60,98,74,48,30.07,29.95,13,3,19,0.00
2013-5-31,76,72,68,71,68,65,95,86,74,30.00,29.88,9,3,14,1.38
2013-6-1,81,72,65,69,66,63,96,84,61,29.91,29.74,13,4,20,0.01
2013-6-2,76,69,62,65,61,55,94,76,60,29.93,29.78,7,3,15,0.01
2013-6-3,70,60,51,55,51,49,94,74,54,30.05,29.93,7,1,13,0.00
2013-6-4,76,61,44,52,47,41,97,67,29,30.14,30.04,9,2,15,0.00
2013-6-5,84,67,50,63,56,49,97,70,42,30.07,29.84,7,1,11,0.00
2013-6-6,73,64,59,65,60,56,96,89,75,29.84,29.76,5,1,10,0.36
2013-6-7,77,66,58,62,58,56,98,79,53,29.86,29.78,8,2,14,0.36
2013-6-8,76,64,55,64,59,54,97,84,61,30.01,29.86,5,1,9,0.00
2013-6-9,84,69,56,68,62,55,98,81,46,30.04,29.85,9,1,15,0.00
2013-6-10,78,69,64,68,65,63,97,87,61,29.85,29.76,10,2,14,0.20
2013-6-11,86,73,63,71,65,61,96,78,47,29.95,29.84,8,2,13,0.01
2013-6-12,92,78,65,76,71,65,98,79,55,29.89,29.67,11,2,15,0.02
2013-6-13,83,74,62,74,64,53,96,72,47,29.92,29.57,14,3,22,0.04
2013-6-14,82,68,53,62,58,52,97,73,44,30.04,29.90,8,1,13,0.04
2013-6-15,86,70,55,66,60,54,98,76,45,30.10,29.92,10,1,15,0.00
2013-6-16,77,71,63,69,66,62,96,85,72,29.98,29.90,8,2,14,0.02
2013-6-17,91,75,63,73,68,63,98,82,44,29.95,29.84,5,1,10,0.02
2013-6-18,86,74,65,69,64,61,95,74,48,29.96,29.83,8,1,10,0.10
2013-6-19,82,70,57,61,58,55,96,69,43,30.09,29.96,7,2,11,0.00
2013-6-20,89,72,55,66,60,54,98,72,38,30.17,30.09,6,1,8,0.00
2013-6-21,89,73,56,71,63,56,98,75,40,30.18,30.04,5,1,10,0.01
2013-6-22,88,74,64,74,68,63,98,81,60,30.12,30.03,7,2,12,0.00
2013-6-23,89,74,62,72,67,62,98,81,46,30.10,30.02,12,2,18,0.00
2013-6-24,85,75,63,72,68,63,98,81,59,30.11,29.99,10,2,13,0.00
2013-6-25,90,78,65,76,71,64,98,81,57,30.02,29.84,9,2,14,0.01
2013-6-26,86,73,68,75,69,66,96,88,68,29.91,29.73,10,2,18,0.18
2013-6-27,89,76,67,75,70,66,98,84,57,29.75,29.67,7,1,17,0.17
2013-6-28,86,74,63,69,66,60,98,78,43,29.67,29.56,12,2,14,0.17
2013-6-29,79,68,60,68,64,59,98,90,65,29.64,29.55,4,1,8,0.08
2013-6-30,77,68,64,68,65,63,98,90,71,29.82,29.63,9,1,11,0.17
2013-7-1,74,68,63,70,64,61,94,87,75,29.91,29.81,10,2,15,0.20
2013-7-2,83,72,64,69,66,63,97,83,58,29.99,29.89,7,2,12,0.40
2013-7-3,83,72,62,70,66,62,98,83,53,30.07,29.98,9,2,13,0.00
2013-7-4,74,69,65,70,67,65,98,94,85,30.12,30.03,5,0,8,0.08
2013-7-5,81,73,67,70,68,66,98,86,63,30.11,30.04,4,1,8,0.01
2013-7-6,75,70,66,71,69,65,98,95,86,30.09,30.02,4,0,9,0.13
2013-7-7,83,72,64,71,67,63,99,86,63,30.09,30.00,7,1,9,0.14
2013-7-8,86,75,65,75,70,65,99,85,67,30.10,29.99,7,2,12,0.00
2013-7-9,89,80,74,78,74,70,91,81,66,30.04,29.93,12,2,16,0.01
2013-7-10,90,79,72,79,73,69,94,81,65,29.95,29.79,10,2,15,0.01
2013-7-11,81,72,59,70,62,57,94,73,51,30.00,29.90,9,2,18,0.00
2013-7-12,80,68,54,63,58,53,98,75,45,30.09,30.00,11,2,15,0.00
2013-7-13,85,72,60,67,64,59,98,76,49,30.11,30.04,11,2,15,0.00
2013-7-14,92,78,63,76,70,62,98,78,52,30.18,30.10,8,1,10,0.06
2013-7-15,93,80,68,75,72,68,98,77,48,30.26,30.18,9,1,10,0.06
2013-7-16,97,82,67,77,72,67,99,76,46,30.30,30.21,5,0,7,0.00
2013-7-17,96,82,70,77,73,69,99,78,48,30.30,30.14,9,1,9,0.00
2013-7-18,96,82,68,77,73,68,99,77,47,30.17,29.98,5,1,8,0.00
2013-7-19,91,80,70,79,74,69,99,82,61,30.01,29.84,8,2,14,0.01
2013-7-20,89,77,68,75,71,68,97,82,64,29.89,29.81,10,3,15,0.06
2013-7-21,87,76,65,74,69,64,99,83,56,29.94,29.84,7,1,9,0.06
2013-7-22,82,74,69,75,71,68,98,91,72,29.87,29.73,6,1,13,0.10
2013-7-23,90,76,64,76,70,62,99,82,56,29.81,29.70,11,2,18,0.11
2013-7-24,78,67,57,61,58,54,94,74,52,29.99,29.82,10,2,13,0.00
2013-7-25,80,65,50,60,56,50,98,75,42,30.07,29.99,8,1,12,0.00
2013-7-26,82,68,52,64,59,51,98,76,48,30.08,29.94,6,1,9,0.01
2013-7-27,78,68,58,66,62,55,98,81,51,29.94,29.82,9,2,14,0.14
2013-7-28,73,62,49,56,53,48,97,74,50,30.04,29.89,11,2,14,0.15
2013-7-29,81,65,50,61,55,50,98,75,45,30.17,30.04,7,1,14,0.00
2013-7-30,79,66,52,67,60,51,98,84,56,30.21,30.08,4,0,6,0.00
2013-7-31,76,70,65,70,66,64,97,90,76,30.09,29.91,5,1,7,0.01
2013-8-1,84,70,60,69,64,58,98,84,43,29.98,29.90,5,1,12,0.04
2013-8-2,84,69,54,69,62,53,98,80,54,29.99,29.92,10,1,17,0.01
2013-8-3,84,73,66,70,66,59,98,82,54,30.02,29.93,7,1,10,0.13
2013-8-4,81,67,52,60,56,51,97,72,42,30.13,30.02,10,2,14,0.00
2013-8-5,82,67,53,64,58,53,98,76,45,30.10,29.94,6,1,9,0.00
2013-8-6,83,70,60,71,65,58,98,84,64,29.95,29.88,6,1,9,0.00
2013-8-7,87,75,65,74,70,64,99,87,64,29.90,29.83,7,1,9,0.00
2013-8-8,88,76,70,77,72,69,99,88,60,29.92,29.84,8,1,15,0.21
2013-8-9,86,74,70,72,70,69,99,88,57,30.00,29.87,5,1,10,0.01
2013-8-10,88,74,66,72,68,66,98,82,52,30.08,30.00,5,1,9,0.01
2013-8-11,88,73,62,71,66,62,99,82,44,30.07,30.00,5,1,9,0.00
2013-8-12,86,73,61,71,66,61,98,83,57,30.06,29.84,10,1,11,0.00
2013-8-13,80,70,53,69,62,51,98,77,50,30.05,29.82,9,2,12,0.00
2013-8-14,73,58,47,54,50,46,98,76,43,30.17,30.05,8,2,13,0.00
2013-8-15,74,58,44,57,51,43,98,78,47,30.18,30.08,9,1,12,0.01
2013-8-16,78,62,48,59,54,48,98,77,48,30.16,30.10,10,2,13,0.00
2013-8-17,82,65,51,63,57,50,98,79,45,30.18,30.10,12,1,14,0.00
2013-8-18,84,68,52,65,58,52,98,75,40,30.17,30.07,8,1,13,0.01
2013-8-19,89,70,53,65,59,52,98,74,36,30.12,30.03,4,0,9,0.00
2013-8-20,88,72,56,69,62,55,98,76,42,30.14,30.05,7,1,14,0.00
2013-8-21,91,74,64,76,68,62,98,83,51,30.13,30.01,10,1,28,0.67
2013-8-22,87,74,64,75,69,64,99,86,57,30.07,29.98,9,1,10,0.08
2013-8-23,85,72,64,70,66,62,99,84,56,30.12,30.03,5,1,10,0.09
2013-8-24,88,71,55,66,61,54,98,75,38,30.24,30.13,9,1,10,0.01
2013-8-25,91,72,57,66,61,56,98,73,36,30.30,30.19,5,1,8,0.01
2013-8-26,90,73,57,74,66,56,98,81,51,30.22,30.04,7,1,11,0.00
2013-8-27,92,78,67,76,71,67,99,83,54,30.06,29.91,6,1,13,0.00
2013-8-28,95,82,71,76,73,69,97,76,49,29.94,29.84,10,2,15,0.00
2013-8-29,86,76,67,73,70,66,98,83,56,30.01,29.92,9,1,12,0.00
2013-8-30,92,76,62,72,68,61,99,79,46,29.97,29.79,8,1,10,0.01
2013-8-31,95,77,70,75,70,66,97,83,51,29.83,29.71,12,2,22,1.15
2013-9-1,86,74,66,74,69,65,98,86,66,29.80,29.73,7,1,12,1.18
2013-9-2,85,74,62,73,68,61,99,83,53,29.87,29.75,5,1,10,0.01
2013-9-3,78,65,55,61,56,52,96,76,49,30.04,29.87,8,1,13,0.00
2013-9-4,84,66,50,66,57,49,98,78,41,30.14,30.04,6,0,10,0.01
2013-9-5,88,69,54,67,60,53,98,77,44,30.17,30.10,6,1,10,0.00
2013-9-6,85,66,52,62,55,51,97,72,34,30.22,30.07,3,0,7,0.00
2013-9-7,88,70,53,68,62,53,98,79,49,30.08,29.92,6,1,12,0.01
2013-9-8,92,75,63,73,68,63,99,80,48,29.96,29.88,4,0,8,0.03
2013-9-9,91,77,64,73,69,63,98,78,52,29.99,29.91,11,2,15,0.00
2013-9-10,96,79,69,76,71,68,98,80,48,30.09,29.97,8,2,12,0.00
2013-9-11,94,78,68,74,70,67,98,79,43,30.11,29.98,9,1,11,0.00
2013-9-12,84,73,62,72,69,57,97,86,59,29.98,29.84,7,1,10,0.50
2013-9-13,68,60,46,58,49,44,95,71,44,30.08,29.92,16,2,20,0.50
2013-9-14,58,44,40,49,42,39,98,94,61,30.19,30.08,7,0,8,0.00
2013-9-16,71,63,51,58,54,49,94,75,61,30.27,30.20,11,2,13,0.00
2013-9-17,75,59,44,56,51,43,98,79,47,30.32,30.14,8,1,14,0.01
2013-9-18,82,63,53,65,58,52,98,85,53,30.15,30.02,5,1,9,0.00
2013-9-19,80,68,60,71,66,59,98,91,70,30.07,29.93,7,1,11,0.10
2013-9-20,86,71,62,72,68,62,99,90,62,29.95,29.77,10,2,21,0.55
2013-9-21,74,63,50,66,56,49,97,80,44,29.87,29.70,7,1,15,0.83
2013-9-22,69,54,43,52,47,42,98,79,43,30.01,29.88,8,1,14,0.01
2013-9-23,70,54,40,53,46,39,98,79,47,30.12,30.01,7,1,12,0.01
2013-9-24,75,57,40,60,50,40,98,82,54,30.09,29.91,7,1,10,0.00
2013-9-25,79,62,51,60,54,50,97,79,42,29.92,29.84,6,1,12,0.01
2013-9-26,80,60,43,61,53,42,98,81,47,30.06,29.92,9,1,10,0.01
2013-9-27,83,62,45,61,53,45,98,77,35,30.16,30.07,3,0,7,0.01
2013-9-28,83,62,44,61,54,44,98,79,43,30.17,30.03,10,1,12,0.01
2013-9-29,63,58,51,62,58,50,98,97,95,30.04,29.98,5,1,9,0.34
2013-9-30,71,64,59,66,62,59,99,94,79,30.01,29.93,6,1,9,0.02
2013-10-1,78,64,54,66,60,53,99,89,65,30.07,29.98,9,1,12,0.02
2013-10-2,77,64,54,70,62,54,99,94,78,30.10,30.02,3,0,4,0.01
2013-10-3,82,70,63,72,66,62,99,87,60,30.05,29.96,11,2,12,0.01
2013-10-4,84,70,60,71,66,59,99,87,63,30.05,29.98,7,1,12,0.03
2013-10-5,77,70,64,72,68,63,99,92,81,30.02,29.90,8,2,18,0.14
2013-10-6,69,62,51,67,60,46,98,95,79,29.90,29.70,13,2,16,0.29
2013-10-7,62,51,42,49,45,42,97,82,56,30.17,29.83,8,2,16,0.29
2013-10-8,70,52,38,53,44,37,98,80,39,30.27,30.17,9,1,17,0.01
2013-10-9,74,54,38,53,46,37,98,79,41,30.25,30.15,7,1,10,0.01
2013-10-10,77,55,38,52,46,38,98,76,34,30.20,30.07,7,0,9,0.01
2013-10-11,81,58,42,57,48,41,98,75,37,30.11,30.00,4,0,7,0.01
2013-10-13,74,56,46,47,46,44,93,71,36,30.30,30.23,3,0,7,0.00
2013-10-14,72,54,40,52,45,39,97,76,38,30.34,30.18,5,1,11,0.00
2013-10-15,74,57,45,64,55,44,98,93,72,30.18,29.92,8,1,15,0.07
2013-10-16,66,59,44,62,53,43,98,84,52,29.96,29.86,8,1,16,0.43
2013-10-17,54,45,38,49,43,37,98,92,76,29.98,29.88,6,1,10,0.12
2013-10-18,66,49,34,51,42,33,98,80,46,30.03,29.92,11,2,17,0.12
2013-10-19,52,44,34,45,41,33,96,87,60,30.00,29.84,6,1,13,0.18
2013-10-20,63,47,33,44,39,32,98,76,47,30.03,29.97,11,3,18,0.19
2013-10-21,65,47,36,47,41,35,97,81,53,29.99,29.89,16,3,20,0.00
2013-10-23,47,42,36,36,32,28,91,69,49,30.06,29.97,8,1,13,0.01
2013-10-24,42,38,33,37,34,31,93,87,76,30.30,30.05,7,1,10,0.05
2013-10-25,50,36,25,32,27,24,96,75,37,30.46,30.30,9,1,13,0.01
2013-10-26,55,40,25,41,32,24,95,75,53,30.30,29.95,14,3,21,0.01
2013-10-27,58,41,27,40,32,26,97,77,41,30.13,30.05,6,1,11,0.01
2013-10-28,64,42,26,41,32,25,96,75,32,30.32,30.11,4,0,8,0.01
2013-10-29,56,48,34,46,42,32,94,81,63,30.33,30.21,3,0,5,0.03
2013-10-30,62,55,48,62,54,46,98,97,93,30.21,29.96,6,0,6,0.17
2013-10-31,67,63,57,64,59,55,98,88,77,29.97,29.30,21,6,25,0.99
2013-11-1,63,55,47,55,47,41,93,76,51,29.75,29.40,14,4,21,1.00
2013-11-2,56,49,43,44,40,35,89,73,51,30.11,29.74,8,2,14,0.00
2013-11-3,54,42,32,42,36,31,97,81,51,30.36,30.11,7,1,9,0.00
2013-11-4,57,44,31,44,38,30,97,80,56,30.41,30.29,6,1,9,0.00
2013-11-5,63,51,43,48,44,42,96,79,53,30.39,30.19,7,1,10,0.02
2013-11-6,61,56,43,57,49,41,94,79,63,30.18,29.95,14,4,19,0.42
2013-11-7,49,42,36,40,33,26,93,71,41,30.29,30.07,10,2,13,0.42
2013-11-8,52,38,26,33,30,25,95,75,44,30.39,30.24,9,1,11,0.00
2013-11-9,61,49,34,42,36,29,90,62,44,30.24,30.01,19,5,26,0.00
2013-11-10,50,45,40,41,34,30,85,68,48,30.32,30.10,7,2,14,0.00
2013-11-11,52,43,30,44,36,28,95,78,47,30.32,30.10,11,2,15,0.18
2013-11-12,37,30,24,30,23,19,92,75,53,30.65,30.33,9,2,14,0.06
2013-11-13,40,28,16,23,19,15,94,73,40,30.67,30.41,10,2,13,0.01
2013-11-14,55,40,27,25,22,18,80,52,23,30.41,30.16,15,4,19,0.01
2013-11-15,50,41,28,43,30,25,87,69,45,30.17,30.09,7,2,12,0.00
2013-11-16,59,53,46,57,49,43,94,88,84,30.11,29.86,11,4,14,0.02
2013-11-17,66,60,50,62,55,41,97,85,60,29.85,29.45,23,7,27,0.27
2013-11-18,52,45,34,42,34,27,87,68,45,30.21,29.78,10,2,25,0.27
2013-11-19,42,32,25,30,27,23,95,82,61,30.37,30.21,7,1,15,0.00
2013-11-20,51,36,22,34,29,21,95,78,48,30.36,30.22,9,1,11,0.00
2013-11-21,58,48,38,48,43,34,95,83,65,30.31,30.18,7,1,12,0.01
2013-11-22,52,46,37,51,43,32,97,89,77,30.39,30.15,10,1,16,0.02
2013-11-23,37,29,21,32,22,11,95,76,58,30.61,30.39,10,2,18,0.02
2013-11-24,29,21,15,17,13,10,90,72,49,30.74,30.56,7,1,12,0.00
2013-11-25,36,27,13,26,17,11,92,68,43,30.57,30.21,9,2,15,0.00
2013-11-26,36,33,32,29,28,26,88,80,71,30.23,29.96,5,1,9,0.00
2013-11-27,32,26,20,29,19,12,87,75,65,30.33,29.97,13,2,15,0.01
2013-11-28,36,24,15,17,15,11,90,70,42,30.49,30.30,11,2,16,0.00
2013-11-29,42,25,13,25,18,11,92,76,47,30.67,30.49,5,1,9,0.00
2013-11-30,52,32,18,30,24,16,93,75,42,30.55,30.19,8,1,15,0.00
2013-12-1,54,38,25,38,31,23,92,78,56,30.19,29.99,10,1,14,0.00
2013-12-2,50,39,29,40,35,28,95,86,67,29.98,29.79,4,0,8,0.04
2013-12-3,53,40,31,47,38,30,97,93,81,29.88,29.79,3,0,7,0.04
2013-12-4,64,51,38,58,49,37,97,94,80,29.86,29.68,6,1,10,0.00
2013-12-5,65,44,29,58,40,26,91,84,78,30.19,29.72,8,2,15,0.14
2013-12-6,29,26,25,27,24,23,93,91,89,30.43,30.16,6,1,12,0.14
2013-12-7,26,18,8,24,14,5,91,83,65,30.66,30.43,9,1,11,0.11
2013-12-8,29,23,10,28,20,7,96,88,79,30.57,30.04,9,3,13,0.11
2013-12-9,32,28,22,31,24,16,96,84,72,30.26,30.02,9,2,14,0.00
2013-12-10,27,21,16,18,14,11,90,76,56,30.39,30.19,15,3,24,0.00
2013-12-11,35,18,3,22,12,0,90,78,57,30.57,30.32,10,2,18,0.03
2013-12-12,23,13,-1,7,2,-5,89,64,32,30.61,30.38,11,2,16,0.03
2013-12-13,36,27,10,31,17,4,95,69,51,30.39,30.18,8,2,15,0.09
2013-12-14,36,33,29,35,32,27,96,95,92,30.17,29.73,6,1,11,0.63
2013-12-15,28,26,24,26,21,17,92,84,73,30.15,29.94,10,3,16,0.63
2013-12-16,29,26,22,27,24,20,94,91,87,30.15,30.02,5,0,7,0.01
2013-12-17,34,28,22,32,25,20,97,89,82,30.19,30.01,8,2,15,0.01
2013-12-18,39,28,16,24,19,13,92,69,48,30.30,30.05,10,2,16,0.10
2013-12-19,49,43,37,42,33,22,90,67,52,30.07,29.93,12,4,18,0.08
2013-12-20,61,55,48,58,49,41,93,81,68,29.93,29.77,16,6,21,0.02
2013-12-21,64,55,49,63,54,48,99,96,92,29.78,29.45,10,2,17,1.91
2013-12-22,62,48,35,60,45,32,96,90,86,30.06,29.45,17,6,25,0.03
2013-12-23,35,29,24,32,24,16,89,81,71,30.43,30.07,10,2,12,0.03
2013-12-24,24,16,11,17,10,5,92,78,66,30.61,30.41,8,2,13,0.00
2013-12-25,31,26,15,26,18,13,92,73,61,30.53,30.23,10,3,15,0.00
2013-12-26,39,32,27,28,24,22,86,75,53,30.40,30.21,10,2,15,0.00
2013-12-27,49,36,27,33,28,23,93,72,55,30.43,30.28,10,2,14,0.00
2013-12-28,54,42,33,36,32,29,84,69,46,30.27,30.02,11,2,16,0.00
2013-12-29,44,37,30,39,34,26,95,86,73,30.07,29.81,13,2,17,0.03
2013-12-30,30,24,19,26,19,14,89,79,69,30.29,30.08,7,1,14,0.03
2013-12-31,33,27,21,23,18,13,83,69,58,30.41,30.21,11,3,18,0.00
2014-1-1,46,31,17,30,25,15,93,79,54,30.31,30.04,7,1,12,0.00
2014-1-2,32,21,9,28,18,3,94,86,76,30.34,29.88,9,2,18,0.00